Tracking 30995 objects as of 5-Jul-2025
HD Live streaming from Space Station
objects crossing your sky now

QIANFAN-75

Track QIANFAN-75 now!
10-day predictions
QIANFAN-75 is classified as:


NORAD ID: 63161
Int'l Code: 2025-046C
Perigee: 1,064.9 km
Apogee: 1,086.8 km
Inclination: 89.0 °
Period: 106.6 minutes
Semi major axis: 7446 km
RCS: Unknown
Launch date: March 11, 2025
Source: People's Republic of China (PRC)
Launch site: Wenchang Satellite Launch Center (WSC)
Your satellite tracking list
Your tracking list is empty




NASA's NSSDC Master Catalog

Two Line Element Set (TLE):
1 63161U 25046C   25186.59616350  .00000086  00000-0  11487-3 0  9999
2 63161  88.9835 336.6335 0014693 224.1337 135.8643 13.50954206 25725
Source of the keplerian elements: AFSPC